Location: Newark
(45.4426°N, 12.3253°E)
Time: 21:23:20
(UTC+00:00)

Envisat - Visible Passes

Search period start: 15 October 2019 00:00
Search period end: 25 October 2019 00:00
Orbit: 764 x 766 km, 98.1° (Epoch: 15 October)

Date Brightness Start Highest point End Pass type
(mag) Time Alt. Az. Time Alt. Az. Time Alt. Az.
15 Oct 3.1 17:16:44 10° S 17:21:49 81° WSW 17:26:56 10° NNW visible
15 Oct 6.4 19:01:09 10° W 19:01:38 10° W 19:02:08 10° W visible
16 Oct 5.5 18:20:27 10° SW 18:24:24 23° W 18:28:23 10° NW visible
17 Oct 6.3 04:48:26 10° ENE 04:51:06 14° E 04:53:44 10° ESE visible
17 Oct 4.1 17:42:30 10° S 17:47:23 47° W 17:52:18 10° NNW visible
18 Oct 3.0 17:05:29 10° SSE 17:10:33 82° ENE 17:15:40 10° NNW visible
18 Oct 6.1 18:47:51 10° WSW 18:50:13 13° W 18:52:36 10° WNW visible
19 Oct 5.1 18:08:43 10° SSW 18:13:03 28° W 18:17:24 10° NW visible
20 Oct 6.7 04:38:18 10° ENE 04:39:40 11° E 04:41:02 10° ESE visible
20 Oct 3.6 17:31:05 10° S 17:36:05 59° W 17:41:07 10° NNW visible
21 Oct 3.0 16:54:18 10° SSE 16:59:19 66° ENE 17:04:22 10° N visible
21 Oct 5.9 18:35:36 10° SW 18:38:48 17° W 18:42:02 10° NW visible
22 Oct 6.0 05:01:53 10° NE 05:05:31 19° E 05:09:07 10° SE visible
22 Oct 4.7 17:57:05 10° SSW 18:01:42 35° W 18:06:21 10° NNW visible
23 Oct 3.2 17:19:43 10° S 17:24:47 75° WSW 17:29:54 10° NNW visible
24 Oct 3.1 16:43:10 10° SSE 16:48:05 53° ENE 16:53:02 10° N visible
24 Oct 5.5 18:23:39 10° SW 18:27:25 21° W 18:31:13 10° NW visible
